Year,Month,Day,Hour,Minute,Value (Times are PST for temperature in C)
2011,05,23,00,00,10.10
2011,05,23,00,01,10.10
2011,05,23,00,02,10.10
2011,05,23,00,03,10.10
2011,05,23,00,04,10.10
2011,05,23,00,05,10.10
2011,05,23,00,06,10.10
2011,05,23,00,07,10.10
2011,05,23,00,08,10.10
2011,05,23,00,09,10.10
2011,05,23,00,10,10.00
2011,05,23,00,11,9.90
2011,05,23,00,12,10.00
2011,05,23,00,13,10.00
2011,05,23,00,14,10.00
2011,05,23,00,15,10.10
2011,05,23,00,16,10.10
2011,05,23,00,17,10.10
2011,05,23,00,18,10.00
2011,05,23,00,19,9.90
2011,05,23,00,20,9.90
2011,05,23,00,21,9.90
2011,05,23,00,22,9.90
2011,05,23,00,23,9.90
2011,05,23,00,24,9.90
2011,05,23,00,25,9.90
2011,05,23,00,26,9.90
2011,05,23,00,27,9.90
2011,05,23,00,28,9.90
2011,05,23,00,29,9.90
2011,05,23,00,30,9.90
2011,05,23,00,31,9.90
2011,05,23,00,32,9.90
2011,05,23,00,33,9.90
2011,05,23,00,34,9.90
2011,05,23,00,35,9.90
2011,05,23,00,36,9.90
2011,05,23,00,37,9.90
2011,05,23,00,38,9.90
2011,05,23,00,39,9.90
2011,05,23,00,40,9.90
2011,05,23,00,41,9.90
2011,05,23,00,42,9.90
2011,05,23,00,43,9.90
2011,05,23,00,44,9.90
2011,05,23,00,45,9.90
2011,05,23,00,46,9.90
2011,05,23,00,47,9.90
2011,05,23,00,48,9.90
2011,05,23,00,49,9.90
2011,05,23,00,50,9.90
2011,05,23,00,51,9.90
2011,05,23,00,52,9.80
2011,05,23,00,53,9.80
2011,05,23,00,54,9.80
2011,05,23,00,55,9.80
2011,05,23,00,56,9.80
2011,05,23,00,57,9.80
2011,05,23,00,58,9.80
2011,05,23,00,59,9.70
2011,05,23,01,00,9.70
2011,05,23,01,01,9.70
2011,05,23,01,02,9.70
2011,05,23,01,03,9.70
2011,05,23,01,04,9.70
2011,05,23,01,05,9.70
2011,05,23,01,06,9.70
2011,05,23,01,07,9.70
2011,05,23,01,08,9.70
2011,05,23,01,09,9.70
2011,05,23,01,10,9.70
2011,05,23,01,11,9.60
2011,05,23,01,12,9.60
2011,05,23,01,13,9.60
2011,05,23,01,14,9.60
2011,05,23,01,15,9.60
2011,05,23,01,16,9.60
2011,05,23,01,17,9.50
2011,05,23,01,18,9.50
2011,05,23,01,19,9.50
2011,05,23,01,20,9.50
2011,05,23,01,21,9.50
2011,05,23,01,22,9.40
2011,05,23,01,23,9.40
2011,05,23,01,24,9.40
2011,05,23,01,25,9.40
2011,05,23,01,26,9.40
2011,05,23,01,27,9.30
2011,05,23,01,28,9.30
2011,05,23,01,29,9.30
2011,05,23,01,30,9.20
2011,05,23,01,31,9.20
2011,05,23,01,32,9.20
2011,05,23,01,33,9.20
2011,05,23,01,34,9.20
2011,05,23,01,35,9.20
2011,05,23,01,36,9.20
2011,05,23,01,37,9.20
2011,05,23,01,38,9.20
2011,05,23,01,39,9.20
2011,05,23,01,40,9.20
2011,05,23,01,41,9.20
2011,05,23,01,42,9.20
2011,05,23,01,43,9.20
2011,05,23,01,44,9.20
2011,05,23,01,45,9.20
2011,05,23,01,46,9.20
2011,05,23,01,47,9.20
2011,05,23,01,48,9.20
2011,05,23,01,49,9.20
2011,05,23,01,50,9.20
2011,05,23,01,51,9.10
2011,05,23,01,52,9.10
2011,05,23,01,53,9.10
2011,05,23,01,54,9.10
2011,05,23,01,55,9.10
2011,05,23,01,56,9.00
2011,05,23,01,57,9.00
2011,05,23,01,58,9.00
2011,05,23,01,59,9.00
2011,05,23,02,00,9.00
2011,05,23,02,01,9.00
2011,05,23,02,02,9.00
2011,05,23,02,03,9.00
2011,05,23,02,04,9.00
2011,05,23,02,05,9.00
2011,05,23,02,06,9.00
2011,05,23,02,07,9.00
2011,05,23,02,08,8.90
2011,05,23,02,09,8.90
2011,05,23,02,10,8.90
2011,05,23,02,11,8.90
2011,05,23,02,12,8.90
2011,05,23,02,13,8.90
2011,05,23,02,14,8.90
2011,05,23,02,15,8.90
2011,05,23,02,16,8.80
2011,05,23,02,17,8.80
2011,05,23,02,18,8.80
2011,05,23,02,19,8.80
2011,05,23,02,20,8.80
2011,05,23,02,21,8.70
2011,05,23,02,22,8.70
2011,05,23,02,23,8.70
2011,05,23,02,24,8.70
2011,05,23,02,25,8.70
2011,05,23,02,26,8.70
2011,05,23,02,27,8.70
2011,05,23,02,28,8.70
2011,05,23,02,29,8.70
2011,05,23,02,30,8.70
2011,05,23,02,31,8.70
2011,05,23,02,32,8.70
2011,05,23,02,33,8.70
2011,05,23,02,34,8.70
2011,05,23,02,35,8.70
2011,05,23,02,36,8.70
2011,05,23,02,37,8.70
2011,05,23,02,38,8.70
2011,05,23,02,39,8.60
2011,05,23,02,40,8.60
2011,05,23,02,41,8.60
2011,05,23,02,42,8.60
2011,05,23,02,43,8.60
2011,05,23,02,44,8.60
2011,05,23,02,45,8.60
2011,05,23,02,46,8.60
2011,05,23,02,47,8.60
2011,05,23,02,48,8.60
2011,05,23,02,49,8.60
2011,05,23,02,50,8.50
2011,05,23,02,51,8.50
2011,05,23,02,52,8.50
2011,05,23,02,53,8.50
2011,05,23,02,54,8.50
2011,05,23,02,55,8.50
2011,05,23,02,56,8.50
2011,05,23,02,57,8.50
2011,05,23,02,58,8.40
2011,05,23,02,59,8.40
2011,05,23,03,00,8.40
2011,05,23,03,01,8.40
2011,05,23,03,02,8.40
2011,05,23,03,03,8.40
2011,05,23,03,04,8.40
2011,05,23,03,05,8.40
2011,05,23,03,06,8.40
2011,05,23,03,07,8.40
2011,05,23,03,08,8.40
2011,05,23,03,09,8.30
2011,05,23,03,10,8.30
2011,05,23,03,11,8.30
2011,05,23,03,12,8.30
2011,05,23,03,13,8.30
2011,05,23,03,14,8.30
2011,05,23,03,15,8.20
2011,05,23,03,16,8.20
2011,05,23,03,17,8.20
2011,05,23,03,18,8.20
2011,05,23,03,19,8.20
2011,05,23,03,20,8.20
2011,05,23,03,21,8.20
2011,05,23,03,22,8.20
2011,05,23,03,23,8.20
2011,05,23,03,24,8.20
2011,05,23,03,25,8.10
2011,05,23,03,26,8.10
2011,05,23,03,27,8.10
2011,05,23,03,28,8.10
2011,05,23,03,29,8.00
2011,05,23,03,30,8.00
2011,05,23,03,31,8.00
2011,05,23,03,32,8.00
2011,05,23,03,33,7.90
2011,05,23,03,34,7.90
2011,05,23,03,35,7.90
2011,05,23,03,36,7.90
2011,05,23,03,37,7.90
2011,05,23,03,38,7.80
2011,05,23,03,39,7.80
2011,05,23,03,40,7.80
2011,05,23,03,41,7.80
2011,05,23,03,42,7.80
2011,05,23,03,43,7.80
2011,05,23,03,44,7.80
2011,05,23,03,45,7.80
2011,05,23,03,46,7.80
2011,05,23,03,47,7.80
2011,05,23,03,48,7.80
2011,05,23,03,49,7.70
2011,05,23,03,50,7.70
2011,05,23,03,51,7.70
2011,05,23,03,52,7.70
2011,05,23,03,53,7.60
2011,05,23,03,54,7.60
2011,05,23,03,55,7.60
2011,05,23,03,56,7.60
2011,05,23,03,57,7.60
2011,05,23,03,58,7.60
2011,05,23,03,59,7.60
2011,05,23,04,00,7.60
2011,05,23,04,01,7.50
2011,05,23,04,02,7.50
2011,05,23,04,03,7.50
2011,05,23,04,04,7.50
2011,05,23,04,05,7.40
2011,05,23,04,06,7.40
2011,05,23,04,07,7.40
2011,05,23,04,08,7.40
2011,05,23,04,09,7.30
2011,05,23,04,10,7.30
2011,05,23,04,11,7.30
2011,05,23,04,12,7.30
2011,05,23,04,13,7.30
2011,05,23,04,14,7.30
2011,05,23,04,15,7.30
2011,05,23,04,16,7.20
2011,05,23,04,17,7.20
2011,05,23,04,18,7.30
2011,05,23,04,19,7.30
2011,05,23,04,20,7.30
2011,05,23,04,21,7.20
2011,05,23,04,22,7.20
2011,05,23,04,23,7.20
2011,05,23,04,24,7.20
2011,05,23,04,25,7.20
2011,05,23,04,26,7.20
2011,05,23,04,27,7.10
2011,05,23,04,28,7.10
2011,05,23,04,29,7.10
2011,05,23,04,30,7.10
2011,05,23,04,31,7.10
2011,05,23,04,32,7.10
2011,05,23,04,33,7.00
2011,05,23,04,34,7.00
2011,05,23,04,35,7.00
2011,05,23,04,36,7.00
2011,05,23,04,37,7.00
2011,05,23,04,38,7.00
2011,05,23,04,39,7.00
2011,05,23,04,40,6.90
2011,05,23,04,41,6.90
2011,05,23,04,42,6.90
2011,05,23,04,43,6.90
2011,05,23,04,44,6.80
2011,05,23,04,45,6.80
2011,05,23,04,46,6.80
2011,05,23,04,47,6.80
2011,05,23,04,48,6.80
2011,05,23,04,49,6.80
2011,05,23,04,50,6.80
2011,05,23,04,51,6.80
2011,05,23,04,52,6.80
2011,05,23,04,53,6.80
2011,05,23,04,54,6.80
2011,05,23,04,55,6.80
2011,05,23,04,56,6.80
2011,05,23,04,57,6.80
2011,05,23,04,58,6.80
2011,05,23,04,59,6.80
2011,05,23,05,00,6.80
2011,05,23,05,01,6.80
2011,05,23,05,02,6.80
2011,05,23,05,03,6.80
2011,05,23,05,04,6.80
2011,05,23,05,05,6.80
2011,05,23,05,06,6.80
2011,05,23,05,07,6.80
2011,05,23,05,08,6.90
2011,05,23,05,09,6.90
2011,05,23,05,10,6.90
2011,05,23,05,11,6.90
2011,05,23,05,12,6.90
2011,05,23,05,13,6.90
2011,05,23,05,14,7.00
2011,05,23,05,15,7.00
2011,05,23,05,16,7.00
2011,05,23,05,17,7.00
2011,05,23,05,18,7.10
2011,05,23,05,19,7.10
2011,05,23,05,20,7.10
2011,05,23,05,21,7.10
2011,05,23,05,22,7.10
2011,05,23,05,23,7.10
2011,05,23,05,24,7.10
2011,05,23,05,25,7.20
2011,05,23,05,26,7.20
2011,05,23,05,27,7.20
2011,05,23,05,28,7.10
2011,05,23,05,29,7.10
2011,05,23,05,30,7.10
2011,05,23,05,31,7.10
2011,05,23,05,32,7.10
2011,05,23,05,33,7.10
2011,05,23,05,34,7.00
2011,05,23,05,35,7.00
2011,05,23,05,36,7.00
2011,05,23,05,37,7.00
2011,05,23,05,38,6.90
2011,05,23,05,39,6.90
2011,05,23,05,40,6.90
2011,05,23,05,41,6.90
2011,05,23,05,42,6.90
2011,05,23,05,43,6.80
2011,05,23,05,44,6.80
2011,05,23,05,45,6.80
2011,05,23,05,46,6.80
2011,05,23,05,47,6.80
2011,05,23,05,48,6.80
2011,05,23,05,49,6.80
2011,05,23,05,50,6.80
2011,05,23,05,51,6.80
2011,05,23,05,52,6.80
2011,05,23,05,53,6.80
2011,05,23,05,54,6.80
2011,05,23,05,55,6.80
2011,05,23,05,56,6.80
2011,05,23,05,57,6.80
2011,05,23,05,58,6.80
2011,05,23,05,59,6.80
2011,05,23,06,00,6.80
2011,05,23,06,01,6.80
2011,05,23,06,02,6.80
2011,05,23,06,03,6.80
2011,05,23,06,04,6.80
2011,05,23,06,05,6.80
2011,05,23,06,06,6.80
2011,05,23,06,07,6.80
2011,05,23,06,08,6.80
2011,05,23,06,09,6.80
2011,05,23,06,10,6.80
2011,05,23,06,11,6.80
2011,05,23,06,12,6.80
2011,05,23,06,13,6.80
2011,05,23,06,14,6.80
2011,05,23,06,15,6.80
2011,05,23,06,16,6.80
2011,05,23,06,17,6.80
2011,05,23,06,18,6.80
2011,05,23,06,19,6.80
2011,05,23,06,20,6.80
2011,05,23,06,21,6.80
2011,05,23,06,22,6.80
2011,05,23,06,23,6.80
2011,05,23,06,24,6.80
2011,05,23,06,25,6.90
2011,05,23,06,26,6.90
2011,05,23,06,27,6.90
2011,05,23,06,28,6.90
2011,05,23,06,29,6.90
2011,05,23,06,30,6.90
2011,05,23,06,31,7.00
2011,05,23,06,32,7.00
2011,05,23,06,33,7.00
2011,05,23,06,34,7.00
2011,05,23,06,35,7.00
2011,05,23,06,36,7.00
2011,05,23,06,37,7.10
2011,05,23,06,38,7.10
2011,05,23,06,39,7.20
2011,05,23,06,40,7.30
2011,05,23,06,41,7.30
2011,05,23,06,42,7.40
2011,05,23,06,43,7.40
2011,05,23,06,44,7.50
2011,05,23,06,45,7.60
2011,05,23,06,46,7.60
2011,05,23,06,47,7.60
2011,05,23,06,48,7.70
2011,05,23,06,49,7.70
2011,05,23,06,50,7.70
2011,05,23,06,51,7.80
2011,05,23,06,52,7.80
2011,05,23,06,53,7.80
2011,05,23,06,54,7.80
2011,05,23,06,55,7.80
2011,05,23,06,56,7.80
2011,05,23,06,57,7.80
2011,05,23,06,58,7.80
2011,05,23,06,59,7.80
2011,05,23,07,00,7.80
2011,05,23,07,01,7.90
2011,05,23,07,02,7.90
2011,05,23,07,03,8.00
2011,05,23,07,04,8.20
2011,05,23,07,05,8.30
2011,05,23,07,06,8.50
2011,05,23,07,07,8.60
2011,05,23,07,08,8.70
2011,05,23,07,09,8.80
2011,05,23,07,10,8.90
2011,05,23,07,11,8.90
2011,05,23,07,12,9.00
2011,05,23,07,13,9.10
2011,05,23,07,14,9.20
2011,05,23,07,15,9.20
2011,05,23,07,16,9.20
2011,05,23,07,17,9.20
2011,05,23,07,18,9.20
2011,05,23,07,19,9.20
2011,05,23,07,20,9.20
2011,05,23,07,21,9.20
2011,05,23,07,22,9.20
2011,05,23,07,23,9.10
2011,05,23,07,24,9.20
2011,05,23,07,25,9.20
2011,05,23,07,26,9.20
2011,05,23,07,27,9.20
2011,05,23,07,28,9.20
2011,05,23,07,29,9.30
2011,05,23,07,30,9.30
2011,05,23,07,31,9.30
2011,05,23,07,32,9.30
2011,05,23,07,33,9.40
2011,05,23,07,34,9.40
2011,05,23,07,35,9.40
2011,05,23,07,36,9.50
2011,05,23,07,37,9.50
2011,05,23,07,38,9.50
2011,05,23,07,39,9.50
2011,05,23,07,40,9.60
2011,05,23,07,41,9.70
2011,05,23,07,42,9.70
2011,05,23,07,43,9.80
2011,05,23,07,44,9.80
2011,05,23,07,45,9.80
2011,05,23,07,46,9.70
2011,05,23,07,47,9.70
2011,05,23,07,48,9.60
2011,05,23,07,49,9.60
2011,05,23,07,50,9.50
2011,05,23,07,51,9.40
2011,05,23,07,52,9.40
2011,05,23,07,53,9.40
2011,05,23,07,54,9.40
2011,05,23,07,55,9.40
2011,05,23,07,56,9.40
2011,05,23,07,57,9.40
2011,05,23,07,58,9.40
2011,05,23,07,59,9.50
2011,05,23,08,00,9.50
2011,05,23,08,01,9.60
2011,05,23,08,02,9.70
2011,05,23,08,03,9.80
2011,05,23,08,04,9.90
2011,05,23,08,05,10.10
2011,05,23,08,06,10.10
2011,05,23,08,07,10.20
2011,05,23,08,08,10.20
2011,05,23,08,09,10.30
2011,05,23,08,10,10.40
2011,05,23,08,11,10.60
2011,05,23,08,12,10.60
2011,05,23,08,13,10.70
2011,05,23,08,14,10.70
2011,05,23,08,15,10.80
2011,05,23,08,16,10.90
2011,05,23,08,17,10.80
2011,05,23,08,18,10.80
2011,05,23,08,19,10.90
2011,05,23,08,20,11.00
2011,05,23,08,21,11.00
2011,05,23,08,22,10.90
2011,05,23,08,23,10.90
2011,05,23,08,24,10.70
2011,05,23,08,25,10.60
2011,05,23,08,26,10.60
2011,05,23,08,27,10.60
2011,05,23,08,28,10.60
2011,05,23,08,29,10.60
2011,05,23,08,30,10.60
2011,05,23,08,31,10.60
2011,05,23,08,32,10.60
2011,05,23,08,33,10.70
2011,05,23,08,34,10.70
2011,05,23,08,35,10.70
2011,05,23,08,36,10.80
2011,05,23,08,37,11.00
2011,05,23,08,38,11.10
2011,05,23,08,39,11.20
2011,05,23,08,40,11.10
2011,05,23,08,41,11.10
2011,05,23,08,42,11.10
2011,05,23,08,43,11.10
2011,05,23,08,44,11.00
2011,05,23,08,45,10.90
2011,05,23,08,46,10.70
2011,05,23,08,47,10.60
2011,05,23,08,48,10.40
2011,05,23,08,49,10.30
2011,05,23,08,50,10.20
2011,05,23,08,51,10.20
2011,05,23,08,52,10.30
2011,05,23,08,53,10.40
2011,05,23,08,54,10.40
2011,05,23,08,55,10.60
2011,05,23,08,56,10.70
2011,05,23,08,57,10.70
2011,05,23,08,58,10.80
2011,05,23,08,59,10.70
2011,05,23,09,00,10.70
2011,05,23,09,01,10.60
2011,05,23,09,02,10.60
2011,05,23,09,03,10.40
2011,05,23,09,04,10.50
2011,05,23,09,05,10.60
2011,05,23,09,06,10.50
2011,05,23,09,07,10.50
2011,05,23,09,08,10.60
2011,05,23,09,09,10.70
2011,05,23,09,10,10.70
2011,05,23,09,11,10.70
2011,05,23,09,12,10.90
2011,05,23,09,13,10.90
2011,05,23,09,14,11.00
2011,05,23,09,15,10.90
2011,05,23,09,16,10.90
2011,05,23,09,17,10.90
2011,05,23,09,18,10.80
2011,05,23,09,19,10.60
2011,05,23,09,20,10.60
2011,05,23,09,21,10.60
2011,05,23,09,22,10.60
2011,05,23,09,23,10.50
2011,05,23,09,24,10.40
2011,05,23,09,25,10.40
2011,05,23,09,26,10.50
2011,05,23,09,27,10.60
2011,05,23,09,28,10.50
2011,05,23,09,29,10.40
2011,05,23,09,30,10.40
2011,05,23,09,31,10.50
2011,05,23,09,32,10.50
2011,05,23,09,33,10.60
2011,05,23,09,34,10.60
2011,05,23,09,35,10.60
2011,05,23,09,36,10.70
2011,05,23,09,37,10.90
2011,05,23,09,38,10.90
2011,05,23,09,39,11.10
2011,05,23,09,40,11.00
2011,05,23,09,41,10.90
2011,05,23,09,42,10.80
2011,05,23,09,43,10.70
2011,05,23,09,44,10.70
2011,05,23,09,45,10.90
2011,05,23,09,46,10.90
2011,05,23,09,47,10.90
2011,05,23,09,48,10.90
2011,05,23,09,49,10.90
2011,05,23,09,50,10.90
2011,05,23,09,51,11.10
2011,05,23,09,52,11.10
2011,05,23,09,53,11.10
2011,05,23,09,54,11.10
2011,05,23,09,55,11.00
2011,05,23,09,56,10.90
2011,05,23,09,57,10.90
2011,05,23,09,58,10.90
2011,05,23,09,59,10.90
2011,05,23,10,00,10.90
2011,05,23,10,01,10.90
2011,05,23,10,02,11.00
2011,05,23,10,03,11.10
2011,05,23,10,04,11.10
2011,05,23,10,05,11.00
2011,05,23,10,06,10.90
2011,05,23,10,07,11.00
2011,05,23,10,08,11.10
2011,05,23,10,09,11.20
2011,05,23,10,10,11.20
2011,05,23,10,11,11.10
2011,05,23,10,12,10.90
2011,05,23,10,13,10.90
2011,05,23,10,14,10.80
2011,05,23,10,15,10.80
2011,05,23,10,16,11.00
2011,05,23,10,17,11.00
2011,05,23,10,18,10.90
2011,05,23,10,19,11.00
2011,05,23,10,20,11.10
2011,05,23,10,21,11.10
2011,05,23,10,22,11.10
2011,05,23,10,23,11.30
2011,05,23,10,24,11.50
2011,05,23,10,25,11.60
2011,05,23,10,26,11.60
2011,05,23,10,27,11.50
2011,05,23,10,28,11.40
2011,05,23,10,29,11.30
2011,05,23,10,30,11.30
2011,05,23,10,31,11.40
2011,05,23,10,32,11.40
2011,05,23,10,33,11.40
2011,05,23,10,34,11.30
2011,05,23,10,35,11.30
2011,05,23,10,36,11.40
2011,05,23,10,37,11.50
2011,05,23,10,38,11.60
2011,05,23,10,39,11.50
2011,05,23,10,40,11.40
2011,05,23,10,41,11.30
2011,05,23,10,42,11.20
2011,05,23,10,43,11.30
2011,05,23,10,44,11.50
2011,05,23,10,45,11.70
2011,05,23,10,46,11.80
2011,05,23,10,47,11.90
2011,05,23,10,48,12.00
2011,05,23,10,49,12.10
2011,05,23,10,50,12.30
2011,05,23,10,51,12.30
2011,05,23,10,52,12.20
2011,05,23,10,53,12.00
2011,05,23,10,54,11.70
2011,05,23,10,55,11.60
2011,05,23,10,56,11.40
2011,05,23,10,57,11.40
2011,05,23,10,58,11.40
2011,05,23,10,59,11.20
2011,05,23,11,00,11.20
2011,05,23,11,01,11.10
2011,05,23,11,02,11.10
2011,05,23,11,03,11.10
2011,05,23,11,04,11.10
2011,05,23,11,05,11.10
2011,05,23,11,06,11.10
2011,05,23,11,07,11.10
2011,05,23,11,08,11.10
2011,05,23,11,09,11.10
2011,05,23,11,10,11.10
2011,05,23,11,11,11.20
2011,05,23,11,12,11.30
2011,05,23,11,13,11.40
2011,05,23,11,14,11.50
2011,05,23,11,15,11.60
2011,05,23,11,16,11.80
2011,05,23,11,17,11.90
2011,05,23,11,18,11.90
2011,05,23,11,19,11.80
2011,05,23,11,20,11.80
2011,05,23,11,21,11.80
2011,05,23,11,22,11.70
2011,05,23,11,23,11.70
2011,05,23,11,24,11.60
2011,05,23,11,25,11.60
2011,05,23,11,26,11.70
2011,05,23,11,27,11.80
2011,05,23,11,28,11.80
2011,05,23,11,29,11.80
2011,05,23,11,30,11.80
2011,05,23,11,31,11.80
2011,05,23,11,32,11.70
2011,05,23,11,33,11.70
2011,05,23,11,34,11.90
2011,05,23,11,35,12.00
2011,05,23,11,36,12.00
2011,05,23,11,37,12.00
2011,05,23,11,38,12.00
2011,05,23,11,39,12.00
2011,05,23,11,40,12.00
2011,05,23,11,41,12.00
2011,05,23,11,42,12.10
2011,05,23,11,43,12.30
2011,05,23,11,44,12.30
2011,05,23,11,45,12.50
2011,05,23,11,46,12.60
2011,05,23,11,47,12.60
2011,05,23,11,48,12.50
2011,05,23,11,49,12.40
2011,05,23,11,50,12.30
2011,05,23,11,51,12.10
2011,05,23,11,52,11.90
2011,05,23,11,53,11.80
2011,05,23,11,54,11.70
2011,05,23,11,55,11.60
2011,05,23,11,56,11.60
2011,05,23,11,57,11.60
2011,05,23,11,58,11.70
2011,05,23,11,59,11.70
2011,05,23,12,00,11.80
2011,05,23,12,01,11.90
2011,05,23,12,02,12.10
2011,05,23,12,03,12.40
2011,05,23,12,04,12.50
2011,05,23,12,05,12.50
2011,05,23,12,06,12.40
2011,05,23,12,07,12.20
2011,05,23,12,08,12.00
2011,05,23,12,09,11.80
2011,05,23,12,10,11.80
2011,05,23,12,11,11.80
2011,05,23,12,12,11.70
2011,05,23,12,13,11.70
2011,05,23,12,14,11.60
2011,05,23,12,15,11.80
2011,05,23,12,16,12.10
2011,05,23,12,17,12.40
2011,05,23,12,18,12.60
2011,05,23,12,19,12.80
2011,05,23,12,20,12.90
2011,05,23,12,21,12.90
2011,05,23,12,22,12.80
2011,05,23,12,23,12.70
2011,05,23,12,24,12.70
2011,05,23,12,25,12.70
2011,05,23,12,26,12.70
2011,05,23,12,27,12.80
2011,05,23,12,28,12.60
2011,05,23,12,29,12.40
2011,05,23,12,30,12.40
2011,05,23,12,31,12.30
2011,05,23,12,32,12.30
2011,05,23,12,33,12.20
2011,05,23,12,34,12.20
2011,05,23,12,35,12.20
2011,05,23,12,36,12.30
2011,05,23,12,37,12.40
2011,05,23,12,38,12.40
2011,05,23,12,39,12.40
2011,05,23,12,40,12.40
2011,05,23,12,41,12.30
2011,05,23,12,42,12.30
2011,05,23,12,43,12.30
2011,05,23,12,44,12.20
2011,05,23,12,45,12.10
2011,05,23,12,46,12.10
2011,05,23,12,47,12.20
2011,05,23,12,48,12.40
2011,05,23,12,49,12.60
2011,05,23,12,50,12.90
2011,05,23,12,51,13.00
2011,05,23,12,52,13.00
2011,05,23,12,53,12.80
2011,05,23,12,54,12.60
2011,05,23,12,55,12.40
2011,05,23,12,56,12.20
2011,05,23,12,57,12.10
2011,05,23,12,58,12.10
2011,05,23,12,59,12.00
2011,05,23,13,00,12.10
2011,05,23,13,01,12.30
2011,05,23,13,02,12.40
2011,05,23,13,03,12.30
2011,05,23,13,04,12.30
2011,05,23,13,05,12.30
2011,05,23,13,06,12.20
2011,05,23,13,07,12.20
2011,05,23,13,08,12.30
2011,05,23,13,09,12.40
2011,05,23,13,10,12.60
2011,05,23,13,11,12.70
2011,05,23,13,12,12.70
2011,05,23,13,13,12.50
2011,05,23,13,14,12.50
2011,05,23,13,15,12.50
2011,05,23,13,16,12.40
2011,05,23,13,17,12.40
2011,05,23,13,18,12.30
2011,05,23,13,19,12.50
2011,05,23,13,20,12.60
2011,05,23,13,21,12.50
2011,05,23,13,22,12.40
2011,05,23,13,23,12.30
2011,05,23,13,24,12.30
2011,05,23,13,25,12.30
2011,05,23,13,26,12.20
2011,05,23,13,27,12.30
2011,05,23,13,28,12.20
2011,05,23,13,29,12.20
2011,05,23,13,30,12.30
2011,05,23,13,31,12.30
2011,05,23,13,32,12.40
2011,05,23,13,33,12.50
2011,05,23,13,34,12.40
2011,05,23,13,35,12.30
2011,05,23,13,36,12.30
2011,05,23,13,37,12.30
2011,05,23,13,38,12.30
2011,05,23,13,39,12.30
2011,05,23,13,40,12.30
2011,05,23,13,41,12.40
2011,05,23,13,42,12.40
2011,05,23,13,43,12.40
2011,05,23,13,44,12.30
2011,05,23,13,45,12.40
2011,05,23,13,46,12.40
2011,05,23,13,47,12.40
2011,05,23,13,48,12.30
2011,05,23,13,49,12.30
2011,05,23,13,50,12.30
2011,05,23,13,51,12.40
2011,05,23,13,52,12.60
2011,05,23,13,53,12.80
2011,05,23,13,54,12.90
2011,05,23,13,55,13.10
2011,05,23,13,56,13.10
2011,05,23,13,57,13.20
2011,05,23,13,58,13.30
2011,05,23,13,59,13.20
2011,05,23,14,00,13.20
2011,05,23,14,01,13.10
2011,05,23,14,02,13.10
2011,05,23,14,03,13.10
2011,05,23,14,04,13.00
2011,05,23,14,05,12.70
2011,05,23,14,06,12.60
2011,05,23,14,07,12.50
2011,05,23,14,08,12.40
2011,05,23,14,09,12.50
2011,05,23,14,10,12.60
2011,05,23,14,11,12.70
2011,05,23,14,12,12.70
2011,05,23,14,13,12.90
2011,05,23,14,14,12.90
2011,05,23,14,15,12.90
2011,05,23,14,16,13.00
2011,05,23,14,17,13.10
2011,05,23,14,18,13.30
2011,05,23,14,19,13.40
2011,05,23,14,20,13.40
2011,05,23,14,21,13.40
2011,05,23,14,22,13.30
2011,05,23,14,23,13.10
2011,05,23,14,24,13.10
2011,05,23,14,25,13.00
2011,05,23,14,26,12.80
2011,05,23,14,27,12.70
2011,05,23,14,28,12.60
2011,05,23,14,29,12.50
2011,05,23,14,30,12.60
2011,05,23,14,31,12.70
2011,05,23,14,32,12.80
2011,05,23,14,33,12.70
2011,05,23,14,34,12.80
2011,05,23,14,35,12.70
2011,05,23,14,36,12.60
2011,05,23,14,37,12.60
2011,05,23,14,38,12.60
2011,05,23,14,39,12.70
2011,05,23,14,40,12.70
2011,05,23,14,41,12.60
2011,05,23,14,42,12.60
2011,05,23,14,43,12.60
2011,05,23,14,44,12.60
2011,05,23,14,45,12.60
2011,05,23,14,46,12.70
2011,05,23,14,47,12.70
2011,05,23,14,48,12.60
2011,05,23,14,49,12.50
2011,05,23,14,50,12.40
2011,05,23,14,51,12.30
2011,05,23,14,52,12.30
2011,05,23,14,53,12.20
2011,05,23,14,54,12.10
2011,05,23,14,55,12.20
2011,05,23,14,56,12.20
2011,05,23,14,57,12.30
2011,05,23,14,58,12.30
2011,05,23,14,59,12.30
2011,05,23,15,00,12.30
2011,05,23,15,01,12.30
2011,05,23,15,02,12.30
2011,05,23,15,03,12.30
2011,05,23,15,04,12.30
2011,05,23,15,05,12.30
2011,05,23,15,06,12.40
2011,05,23,15,07,12.50
2011,05,23,15,08,12.50
2011,05,23,15,09,12.50
2011,05,23,15,10,12.50
2011,05,23,15,11,12.40
2011,05,23,15,12,12.30
2011,05,23,15,13,12.30
2011,05,23,15,14,12.30
2011,05,23,15,15,12.40
2011,05,23,15,16,12.50
2011,05,23,15,17,12.60
2011,05,23,15,18,12.60
2011,05,23,15,19,12.70
2011,05,23,15,20,12.70
2011,05,23,15,21,12.70
2011,05,23,15,22,12.70
2011,05,23,15,23,12.60
2011,05,23,15,24,12.60
2011,05,23,15,25,12.60
2011,05,23,15,26,12.70
2011,05,23,15,27,12.80
2011,05,23,15,28,12.90
2011,05,23,15,29,13.00
2011,05,23,15,30,13.00
2011,05,23,15,31,13.00
2011,05,23,15,32,13.00
2011,05,23,15,33,12.90
2011,05,23,15,34,12.80
2011,05,23,15,35,12.80
2011,05,23,15,36,12.80
2011,05,23,15,37,12.80
2011,05,23,15,38,12.70
2011,05,23,15,39,12.50
2011,05,23,15,40,12.50
2011,05,23,15,41,12.60
2011,05,23,15,42,12.60
2011,05,23,15,43,12.60
2011,05,23,15,44,12.80
2011,05,23,15,45,12.90
2011,05,23,15,46,13.00
2011,05,23,15,47,13.20
2011,05,23,15,48,13.30
2011,05,23,15,49,13.50
2011,05,23,15,50,13.60
2011,05,23,15,51,13.60
2011,05,23,15,52,13.70
2011,05,23,15,53,13.60
2011,05,23,15,54,13.60
2011,05,23,15,55,13.70
2011,05,23,15,56,13.70
2011,05,23,15,57,13.60
2011,05,23,15,58,13.50
2011,05,23,15,59,13.40
2011,05,23,16,00,13.30
2011,05,23,16,01,13.30
2011,05,23,16,02,13.20
2011,05,23,16,03,13.20
2011,05,23,16,04,13.30
2011,05,23,16,05,13.30
2011,05,23,16,06,13.30
2011,05,23,16,07,13.30
2011,05,23,16,08,13.30
2011,05,23,16,09,13.30
2011,05,23,16,10,13.30
2011,05,23,16,11,13.30
2011,05,23,16,12,13.30
2011,05,23,16,13,13.20
2011,05,23,16,14,13.10
2011,05,23,16,15,13.00
2011,05,23,16,16,12.80
2011,05,23,16,17,12.70
2011,05,23,16,18,12.60
2011,05,23,16,19,12.50
2011,05,23,16,20,12.50
2011,05,23,16,21,12.50
2011,05,23,16,22,12.50
2011,05,23,16,23,12.40
2011,05,23,16,24,12.50
2011,05,23,16,25,12.60
2011,05,23,16,26,12.70
2011,05,23,16,27,12.70
2011,05,23,16,28,12.80
2011,05,23,16,29,12.70
2011,05,23,16,30,12.60
2011,05,23,16,31,12.60
2011,05,23,16,32,12.60
2011,05,23,16,33,12.80
2011,05,23,16,34,12.90
2011,05,23,16,35,13.00
2011,05,23,16,36,13.10
2011,05,23,16,37,13.20
2011,05,23,16,38,13.20
2011,05,23,16,39,13.30
2011,05,23,16,40,13.20
2011,05,23,16,41,13.30
2011,05,23,16,42,13.30
2011,05,23,16,43,13.50
2011,05,23,16,44,13.60
2011,05,23,16,45,13.70
2011,05,23,16,46,13.70
2011,05,23,16,47,13.70
2011,05,23,16,48,13.80
2011,05,23,16,49,13.80
2011,05,23,16,50,13.70
2011,05,23,16,51,13.70
2011,05,23,16,52,13.70
2011,05,23,16,53,13.70
2011,05,23,16,54,13.70
2011,05,23,16,55,13.70
2011,05,23,16,56,13.50
2011,05,23,16,57,13.40
2011,05,23,16,58,13.30
2011,05,23,16,59,13.20
2011,05,23,17,00,13.10
2011,05,23,17,01,13.00
2011,05,23,17,02,12.80
2011,05,23,17,03,12.70
2011,05,23,17,04,12.70
2011,05,23,17,05,12.70
2011,05,23,17,06,12.80
2011,05,23,17,07,12.80
2011,05,23,17,08,12.80
2011,05,23,17,09,12.80
2011,05,23,17,10,12.80
2011,05,23,17,11,12.90
2011,05,23,17,12,13.00
2011,05,23,17,13,13.10
2011,05,23,17,14,13.20
2011,05,23,17,15,13.30
2011,05,23,17,16,13.20
2011,05,23,17,17,13.20
2011,05,23,17,18,13.10
2011,05,23,17,19,13.10
2011,05,23,17,20,13.00
2011,05,23,17,21,13.10
2011,05,23,17,22,13.20
2011,05,23,17,23,13.30
2011,05,23,17,24,13.30
2011,05,23,17,25,13.30
2011,05,23,17,26,13.30
2011,05,23,17,27,13.30
2011,05,23,17,28,13.40
2011,05,23,17,29,13.50
2011,05,23,17,30,13.60
2011,05,23,17,31,13.70
2011,05,23,17,32,13.60
2011,05,23,17,33,13.60
2011,05,23,17,34,13.60
2011,05,23,17,35,13.60
2011,05,23,17,36,13.60
2011,05,23,17,37,13.60
2011,05,23,17,38,13.60
2011,05,23,17,39,13.70